Wind_Speed
11 9 8 6 5 3 2 1 1 2 4 4 4 5 6 6 7 8 8 9 9 9 9 9 9 9 8 8 7 6 5 5 4 3 3 4 4 5 5 6 7 8 9
12 10 9 8 6 4 3 2 1 0 1 2 3 4 4 5 6 7 7 8 8 7 7 8 8 8 8 7 7 7 6 5 5 5 5 5 6 7 8 8 9 10 11
13 11 10 9 8 6 4 3 2 2 1 1 1 2 3 4 5 6 6 6 7 7 7 7 7 7 7 7 8 7 7 7 7 7 7 8 9 9 10 11 12 13 13
14 12 11 11 9 8 6 5 4 3 3 2 2 2 2 3 4 5 5 6 6 7 7 7 7 7 7 8 9 9 9 9 10 10 9 10 11 12 12 14 15 16 17
15 14 12 11 11 9 8 6 5 4 4 4 3 3 3 4 4 5 6 6 7 7 7 7 7 8 9 10 10 11 11 12 12 12 13 13 14 14 15 17 18 18 19
15 14 14 13 12 11 10 8 7 7 6 5 5 5 5 5 6 7 7 8 8 8 9 8 9 10 11 12 12 13 13 14 14 15 15 15 16 17 18 20 21 21 22
17 16 15 14 13 13 12 10 10 9 8 8 7 7 7 7 8 8 9 9 10 10 10 10 11 12 13 14 14 15 15 16 16 17 18 19 19 19 20 21 22 23 25
18 17 16 15 15 14 13 12 11 11 10 10 10 9 9 9 10 10 10 11 12 12 12 12 13 14 15 16 16 17 18 18 19 20 21 21 21 22 22 23 24 25 26
18 18 17 16 16 15 14 14 13 13 12 12 12 11 11 11 11 12 13 13 14 14 15 15 16 17 18 18 19 20 20 21 22 23 24 24 24 24 24 25 26 27 28
19 18 18 17 17 16 16 15 15 15 14 14 14 14 14 14 14 14 15 16 16 17 17 18 19 19 20 21 21 22 23 24 25 26 26 26 27 27 28 28 28 29 30
19 18 19 18 18 17 17 17 16 16 16 16 16 16 16 16 17 17 17 18 18 19 20 21 22 22 23 23 23 24 25 26 27 28 28 28 29 30 31 31 32 32 33
20 19 19 19 19 18 18 18 18 18 18 18 18 18 18 19 19 19 20 20 21 22 23 24 24 25 25 26 26 27 28 28 29 30 30 31 31 32 32 33 34 35 35
20 20 20 20 20 20 20 20 20 20 19 20 20 20 21 21 21 22 22 23 24 25 25 26 26 27 28 29 29 30 30 31 32 33 33 33 34 34 35 36 37 37 38
21 21 21 22 22 21 21 21 21 21 21 22 22 22 23 24 24 24 25 26 27 28 28 28 29 30 31 32 32 33 33 33 34 35 36 36 37 38 38 39 39 40 41
23 23 23 23 23 23 24 24 24 24 24 24 24 25 26 26 27 28 29 29 30 30 31 32 33 33 34 35 35 36 36 36 37 38 39 40 40 41 41 42 42 43 44
25 25 25 25 26 26 26 26 26 26 26 26 27 27 28 29 30 31 31 32 33 34 34 35 36 36 37 38 38 38 39 39 40 41 42 43 43 44 44 45 46 47 48
26 27 27 28 28 28 28 28 28 28 28 29 30 30 31 32 33 33 34 35 36 36 37 38 38 39 40 40 41 41 41 42 43 44 45 45 46 47 47 48 49 50 51
28 29 29 29 29 29 30 30 30 31 31 32 33 33 34 35 35 36 36 37 38 39 40 41 41 42 43 43 44 44 45 46 46 47 48 48 49 50 51 52 53 53 54
30 30 31 30 31 31 31 32 33 33 34 35 36 36 37 38 38 38 39 40 41 42 43 43 44 45 46 46 47 47 48 48 49 50 51 51 52 53 54 55 55 56 57
31 32 32 32 32 33 34 34 35 36 37 38 39 40 41 41 41 42 42 43 44 45 46 46 47 48 49 49 49 50 50 51 52 53 53 54 55 56 56 57 58 58 59
33 33 34 34 35 36 36 37 38 39 40 40 41 42 43 44 44 45 45 46 47 48 48 49 50 50 51 52 52 53 53 54 54 55 55 56 57 57 58 59 60 61 61
35 35 36 37 37 38 39 40 41 42 42 43 44 45 46 47 47 47 48 49 50 50 51 52 52 53 53 54 55 56 56 57 57 58 58 59 59 60 61 62 62 62 62
38 39 39 40 41 41 42 43 44 44 45 46 47 48 49 49 50 50 51 52 53 53 53 55 55 55 56 57 58 58 59 59 59 60 60 61 61 62 63 63 63 63 62
40 41 42 42 43 44 44 45 46 47 48 49 49 50 51 52 52 53 54 54 55 55 56 57 58 58 59 60 60 61 61 61 61 61 62 63 63 64 64 63 63 63 63
43 43 44 44 45 46 47 48 49 50 50 51 52 52 53 54 55 55 56 56 57 58 58 59 59 60 61 62 62 62 62 62 62 63 63 64 64 63 63 63 63 62 62
45 46 46 47 48 48 49 50 51 52 53 53 54 54 55 55 56 56 57 58 58 58 59 60 61 61 62 62 62 63 62 62 63 63 63 63 63 63 63 62 62 62 61
Wind_Direction
202 199 194 190 186 176 157 134 82 58 57 57 52 52 51 51 48 45 46 46 47 48 47 47 46 45 43 40 35 32 29 20 6 354 314 299 284 283 288 290 279 274 271
207 205 202 200 199 197 195 185 172 106 58 53 45 44 44 42 38 36 36 34 35 35 34 32 31 30 28 24 20 15 9 2 353 340 321 306 296 291 290 290 283 280 276
211 210 209 209 208 209 213 215 219 227 246 336 10 28 29 26 22 17 15 15 15 14 14 14 14 11 9 5 2 357 352 347 341 332 321 309 298 293 292 291 288 282 280
214 214 215 215 215 217 221 228 234 237 243 268 294 323 341 351 357 358 358 354 351 352 355 356 357 356 351 347 346 343 339 334 330 325 318 310 301 294 291 291 288 283 281
218 219 220 221 222 223 226 233 240 245 251 260 272 290 304 316 324 330 337 337 333 333 334 334 335 334 332 332 332 330 328 327 326 321 314 309 302 296 292 291 288 285 282
220 222 224 227 228 229 231 236 243 249 255 262 268 280 290 297 303 311 319 322 321 321 320 318 318 319 321 321 320 319 318 318 320 320 315 311 306 300 295 293 289 288 285
223 225 227 229 232 233 235 240 244 249 254 259 266 276 286 294 299 302 307 312 314 313 312 310 310 311 312 313 314 315 314 314 314 315 314 311 309 304 299 296 293 291 289
227 228 229 231 234 237 239 241 245 249 253 257 263 271 279 286 293 298 301 308 308 308 308 309 308 309 310 312 312 312 311 310 310 310 310 309 306 303 300 297 295 293 291
228 230 232 234 236 238 241 244 247 251 254 259 263 269 276 282 288 293 297 300 305 305 306 306 307 308 308 308 309 309 309 308 308 308 309 309 305 303 300 298 297 295 294
229 231 234 236 238 240 243 246 250 253 256 260 264 269 274 280 285 290 294 297 299 302 303 303 304 304 305 305 305 306 306 306 306 306 307 307 306 304 302 299 298 297 296
230 232 236 238 240 242 245 249 252 255 258 262 265 269 274 279 283 287 291 293 295 298 300 302 302 302 302 303 303 303 303 304 305 305 305 305 305 303 302 301 299 298 297
232 235 238 240 242 244 247 252 255 258 260 263 267 270 274 278 282 286 289 292 294 296 298 299 299 300 300 301 301 302 302 303 303 303 303 303 303 303 302 300 299 298 298
234 237 241 243 244 247 250 253 256 259 262 265 268 271 275 278 281 284 288 291 293 295 296 297 298 298 299 299 300 300 301 302 301 301 302 302 301 301 301 300 299 299 298
236 239 243 246 247 250 252 255 258 260 263 266 269 272 275 278 282 284 286 289 292 294 295 296 297 298 298 298 298 298 299 300 299 299 299 300 300 300 299 299 299 299 298
241 243 247 250 251 253 255 257 259 261 264 267 269 272 275 278 282 284 286 288 290 292 293 295 296 297 297 297 297 297 298 299 299 298 299 299 299 299 299 298 298 297 297
245 247 250 253 254 255 257 259 261 263 265 268 270 272 275 278 281 284 285 287 288 290 292 293 295 295 296 296 296 296 296 297 297 297 297 298 298 298 298 297 297 297 297
248 249 252 254 256 258 259 260 262 264 266 269 271 273 276 279 282 284 285 286 288 290 292 293 294 294 295 295 295 295 295 295 296 296 297 296 297 297 297 297 297 297 297
251 252 254 255 257 259 261 262 264 266 268 270 272 275 277 279 282 283 285 287 288 290 291 292 293 294 294 294 295 295 295 295 295 295 296 296 296 297 297 297 297 297 297
254 255 256 256 257 259 261 263 265 267 269 271 273 275 277 279 281 283 284 286 288 289 290 291 292 293 294 294 294 294 294 294 295 295 295 295 296 297 297 297 297 297 297
257 258 259 259 259 261 263 265 267 268 269 271 273 275 277 278 280 282 284 286 287 288 290 291 292 292 293 293 293 294 294 294 295 295 295 295 296 296 297 297 297 297 297
260 260 261 262 263 263 265 267 268 270 271 273 274 276 277 279 281 283 284 285 287 288 289 290 291 291 291 292 292 293 293 294 294 294 294 295 295 296 296 296 296 297 297
262 263 263 264 265 266 268 269 270 272 273 274 276 277 278 280 282 283 284 286 287 288 289 289 290 290 291 291 292 292 293 293 293 293 293 294 294 295 296 296 296 296 296
264 264 265 266 266 267 269 270 271 272 274 276 277 278 280 281 282 283 285 286 287 287 288 289 289 290 290 291 292 292 292 293 293 293 293 293 294 295 295 296 296 296 296
265 266 267 268 269 270 270 271 273 274 276 278 279 279 281 282 283 284 284 285 286 287 287 288 288 289 289 290 291 291 292 292 292 292 292 293 294 294 295 295 295 295 295
267 268 269 270 271 272 273 274 275 276 277 278 279 280 282 282 283 284 284 285 286 286 287 287 288 289 290 290 291 291 291 291 292 292 292 293 293 294 294 295 295 295 295
268 269 270 271 272 273 274 275 276 277 278 278 279 281 282 283 284 284 285 285 286 287 287 288 288 289 290 291 291 291 291 292 292 293 293 294 294 294 294 295 295 295 295
Height
5880 5882 5883 5884 5884 5885 5885 5884 5884 5884 5883 5883 5882 5881 5880 5879 5878 5877 5876 5875 5873 5872 5871 5870 5869 5868 5867 5866 5865 5864 5864 5863 5862 5862 5861 5860 5860 5860 5860 5859 5859 5859 5859
5879 5880 5881 5882 5883 5884 5884 5884 5884 5883 5883 5883 5882 5881 5880 5879 5878 5877 5876 5875 5874 5873 5872 5871 5870 5869 5868 5867 5866 5864 5863 5862 5862 5861 5859 5859 5858 5858 5857 5857 5857 5857 5856
5877 5878 5880 5881 5882 5882 5883 5883 5883 5883 5883 5882 5882 5881 5880 5879 5878 5877 5876 5875 5874 5873 5872 5871 5869 5868 5867 5866 5865 5864 5863 5861 5860 5858 5857 5856 5855 5855 5854 5854 5854 5853 5853
5875 5876 5878 5879 5880 5881 5881 5882 5882 5882 5882 5881 5881 5880 5880 5879 5878 5877 5876 5874 5873 5872 5871 5870 5869 5868 5867 5865 5864 5863 5861 5860 5858 5856 5854 5853 5852 5851 5851 5850 5850 5849 5848
5872 5874 5875 5876 5878 5879 5879 5880 5880 5880 5880 5880 5880 5879 5879 5878 5877 5875 5874 5873 5872 5870 5869 5868 5867 5866 5865 5864 5863 5861 5859 5858 5855 5853 5851 5850 5848 5847 5846 5846 5845 5844 5843
5869 5871 5872 5874 5875 5876 5877 5877 5878 5878 5878 5878 5878 5877 5877 5876 5875 5874 5872 5871 5869 5868 5867 5866 5865 5864 5863 5862 5860 5858 5857 5855 5853 5851 5848 5846 5844 5842 5841 5840 5839 5838 5837
5866 5868 5869 5871 5872 5873 5874 5875 5875 5875 5876 5876 5876 5875 5874 5874 5872 5871 5870 5868 5866 5865 5864 5863 5862 5861 5860 5858 5857 5855 5853 5851 5849 5847 5845 5842 5840 5837 5835 5834 5832 5831 5829
5862 5864 5866 5867 5868 5870 5871 5871 5872 5872 5872 5872 5872 5872 5872 5871 5870 5869 5867 5866 5864 5862 5861 5860 5859 5858 5856 5855 5853 5851 5849 5847 5845 5843 5840 5837 5834 5831 5829 5827 5825 5823 5822
5858 5860 5862 5863 5865 5866 5867 5867 5868 5869 5869 5869 5869 5869 5868 5868 5867 5865 5864 5863 5861 5860 5858 5857 5855 5854 5852 5850 5849 5847 5844 5842 5839 5837 5834 5831 5828 5825 5822 5820 5818 5815 5814
5854 5856 5857 5859 5860 5862 5863 5863 5864 5865 5865 5865 5865 5865 5864 5864 5863 5862 5860 5859 5858 5856 5855 5853 5851 5849 5847 5845 5843 5841 5839 5836 5834 5831 5828 5825 5821 5818 5816 5813 5810 5808 5805
5850 5852 5853 5855 5856 5857 5858 5859 5859 5860 5860 5860 5860 5860 5860 5859 5858 5857 5856 5854 5853 5851 5850 5848 5846 5844 5842 5840 5838 5835 5833 5830 5827 5824 5821 5818 5814 5811 5808 5805 5802 5799 5796
5846 5847 5849 5850 5851 5852 5853 5854 5855 5855 5855 5856 5855 5855 5855 5854 5853 5852 5851 5849 5848 5846 5844 5842 5840 5838 5836 5834 5831 5829 5826 5823 5820 5817 5814 5811 5807 5804 5800 5796 5793 5790 5787
5841 5842 5844 5845 5846 5847 5848 5849 5849 5850 5850 5850 5850 5850 5849 5848 5847 5846 5845 5844 5842 5840 5838 5836 5833 5831 5829 5827 5824 5821 5818 5815 5812 5809 5806 5802 5799 5795 5791 5788 5784 5781 5777
5835 5837 5838 5839 5840 5841 5842 5843 5843 5843 5844 5844 5844 5843 5842 5842 5841 5840 5838 5837 5835 5833 5831 5828 5826 5824 5821 5819 5816 5813 5810 5807 5803 5800 5797 5793 5789 5785 5782 5778 5774 5770 5767
5830 5831 5832 5833 5834 5835 5836 5836 5836 5837 5837 5837 5837 5836 5835 5835 5833 5832 5830 5829 5827 5825 5822 5820 5818 5815 5813 5810 5807 5803 5800 5797 5794 5790 5786 5783 5779 5775 5771 5767 5763 5759 5755
5823 5824 5825 5826 5827 5828 5828 5829 5829 5829 5829 5829 5829 5828 5827 5826 5825 5823 5822 5820 5818 5816 5813 5811 5809 5806 5803 5800 5797 5793 5790 5786 5783 5779 5775 5771 5767 5763 5759 5755 5750 5746 5742
5816 5817 5818 5819 5820 5820 5820 5821 5821 5821 5821 5820 5820 5819 5819 5817 5816 5814 5812 5810 5808 5806 5804 5801 5798 5795 5792 5789 5785 5782 5778 5775 5771 5767 5763 5759 5755 5750 5746 5742 5737 5732 5728
5808 5809 5810 5810 5811 5812 5812 5812 5812 5812 5812 5811 5811 5810 5809 5807 5806 5804 5802 5800 5798 5795 5792 5790 5787 5783 5780 5777 5773 5769 5766 5762 5758 5754 5750 5746 5741 5736 5732 5727 5722 5717 5712
5799 5800 5801 5801 5802 5802 5802 5803 5803 5803 5802 5802 5801 5800 5798 5796 5795 5793 5791 5789 5786 5783 5780 5777 5774 5771 5767 5764 5760 5756 5752 5748 5744 5740 5736 5731 5726 5722 5717 5712 5706 5701 5695
5790 5791 5791 5792 5792 5792 5792 5792 5792 5792 5791 5790 5789 5788 5786 5785 5783 5781 5779 5776 5773 5770 5767 5764 5760 5757 5753 5749 5746 5742 5738 5734 5730 5725 5721 5716 5711 5706 5701 5695 5689 5684 5678
5780 5781 5781 5782 5782 5782 5782 5781 5781 5780 5779 5779 5777 5776 5774 5772 5770 5768 5765 5763 5759 5756 5753 5750 5746 5742 5738 5735 5731 5727 5723 5718 5714 5709 5705 5700 5694 5689 5684 5678 5672 5666 5660
5770 5770 5771 5771 5771 5770 5770 5770 5769 5768 5767 5766 5764 5762 5760 5758 5756 5754 5751 5748 5745 5742 5738 5734 5731 5727 5723 5719 5715 5711 5707 5702 5697 5692 5687 5682 5677 5671 5666 5660 5654 5647 5641
5759 5759 5759 5759 5759 5758 5757 5757 5756 5755 5754 5752 5750 5748 5746 5744 5742 5739 5736 5733 5729 5726 5722 5718 5715 5711 5707 5702 5698 5693 5689 5685 5680 5674 5669 5664 5659 5653 5647 5641 5635 5628 5622
5746 5746 5746 5746 5745 5745 5744 5743 5742 5741 5739 5737 5735 5733 5731 5729 5726 5723 5720 5716 5713 5709 5706 5702 5698 5694 5690 5685 5680 5676 5671 5666 5661 5656 5650 5645 5639 5634 5628 5622 5615 5609 5603
5734 5733 5733 5732 5731 5731 5730 5728 5727 5725 5724 5722 5720 5717 5715 5712 5709 5706 5703 5699 5696 5692 5688 5684 5680 5676 5671 5667 5662 5657 5652 5647 5642 5636 5631 5625 5620 5614 5608 5602 5596 5590 5584
5720 5719 5718 5718 5717 5716 5714 5713 5711 5709 5707 5705 5703 5700 5698 5695 5692 5689 5685 5682 5678 5674 5670 5666 5662 5657 5652 5648 5643 5638 5633 5627 5622 5616 5611 5605 5600 5594 5589 5583 5577 5571 5565